User: anonymous
Location: Unspecified
(0.0000°N, 0.0000°E)
Time: 20:17:43
(UTC+00:00)
Language:

GOSAT - Orbit

View from above orbital plane
View from above orbital plane
View from above satellite
View from above satellite

Ground track
Ground track

The orbit data is extracted from the following two-line orbital elements,

1 33492U 09002A   14274.49745184 -.00000275  00000-0 -40088-4 0  9789
2 33492 098.0583 022.3229 0001660 089.6312 270.5063 14.67551233304678
Epoch (UTC): 01 October 2014 11:56:19
Eccentricity: 0.0001660
inclination: 98.0583°
perigee height: 668 km
apogee height: 670 km
right ascension of ascending node: 22.3229°
argument of perigee: 89.6312°
revolutions per day: 14.67551233
mean anomaly at epoch: 270.5063°
orbit number at epoch: 30467

The dashed part of the orbit path shows where the satellite is in the earth's shadow,  

DLR